SL-16 DEB, 39303

Orbit data source: Space-Track

SL-16 DEB, 39303 is space debris in LEO originally from a launch on Fri, 25 Dec 1992 UTC launched from the Tyuratam Missile And Space Complex (TTMTR). Debris objects in space refer to the collection of defunct objects orbiting the Earth. Examples of debris include non-operational satellites, rocket bodies, and fragments generated from explosions, collisions, or faulty payload assembly.

Loading next visibility...
Identifier
39303, 1992-093JU
Orbit
LEO
Country
Flag of CISCIS
Related business
Manufacturer
Unknown
Mission
Spacecraft
Bus & Motor
Unknown
Mass
Unknown
Launch date (UTC)
1992-12-25 (33 years ago)
Launch vehicle
Unknown
Launch site
Tyuratam Missile And Space Complex (TTMTR)
Object type
Payload
Rocket body
Debris
Shape & HBR
Unknown shape, 0.1 m
Radar Cross Section
Small (<0.1 m²)

Expand to show TLE details & history
Last TLE update: 5 days ago

TLE from 5 days ago
0 SL-16 DEB
1 39303U 92093JU  26122.92629194  .00000627  00000-0  34213-3 0  9997
2 39303  70.9079   3.0184 0058104 218.8904 140.8032 14.15149933645933
Epoch: 2026-05-02T22:13Z
TLE epoch observation values (Epoch: 2026-05-02T22:13:51.623Z)
Latitude
-0.00002°
Longitude
168.71611°
Altitude
876.809 km
Speed
7.397 km/s
True Right ascension
00h 12m 04s
True Declination
0° 00' 00"
Sunlit
Object was in daylight at epoch
Visualization orbit readout
Latitude
Unknown
Longitude
Unknown
Altitude
Unknown
Speed
Unknown
Apparent Right ascension
Unknown
Apparent Declination
Unknown
Sunlit
N/A
Visualization observer readout
Local Sidereal Time
19:08:09
Azimuth
Unknown
Elevation
Unknown
Doppler factor
Unknown
Orbital elements
Apogee altitude
881.675 km
Perigee altitude
797.797 km
Semi-major axis
7,217.873 km
Eccentricity
0.00581
Inclination
70.9079°
RAAN
3.0184°
Arg. of periapsis
218.8904°
True anomaly
141.22163°
Mean anomaly
140.8032°
Eccentric anomaly
141.01265°
Mean motion
3.5394 °/min
Orbital period
101.71 mins
BSTAR
0.00034213
Loading maneuver chart data...
Computing Atmospheric mass density...
Loading historical data...
Loading historical data...
Loading historical data...
Loading historical data...
Loading historical data...
Loading historical data...
Loading historical data...

Documentation

Showing up to 5 results
|